Meath Environmental Platform

Observations for Trim Patrick St

Time AQI Temp °C Hum % Pres Pa CO μg/m³ H₂S μg/m³ NO μg/m³ NO₂ μg/m³ O₃ μg/m³ SO₂ μg/m³ PM1 μg/m³ PM2.5 μg/m³ PM10 μg/m³
Friday 31 July 2026
18:24 3 23.6 40 68,849 0 10.86 1.47 8.78 89.18 7.86 14.86 28.97 32.04
18:23 3 23.6 40 68,857 0 10.01 1.47 12.56 73.71 7.67 14 24.29 25.22
18:22 3 23.7 40 68,865 0 9.85 1.44 8.9 81.15 7.88 12.29 21.91 24.1
18:21 3 23.7 41 68,851 0 11.33 1.41 11.7 75.75 8.66 8.86 17.96 19.76
18:20 3 23.8 41 68,857 0 16.15 1.37 16.81 73.25 8.79 13.14 23.44 25.79
18:19 3 23.9 40 68,863 0 14.4 1.35 17.52 79.1 8.91 10.57 20.33 22.36
18:18 3 24 40 68,873 0 12.97 1.34 9.74 88.35 8.93 10.57 18.01 19.81
18:17 3 24.1 40 68,890 0 12.54 1.34 10.74 83.62 8.8 10.57 18.04 19.84
18:16 3 24.2 40 68,910 0 10.46 1.33 11.98 82.17 8.11 8 16.48 18.13
18:15 3 24.3 39 68,900 0 11.28 1.36 11.71 88.22 8.99 7.14 14.15 15.57
18:14 3 24.4 39 68,894 0 8.7 1.33 9.54 71.21 8.7 5.43 12.6 13.86
18:13 3 24.5 39 68,884 0 9.73 1.31 11.34 81.83 8.71 2.86 8.69 9.56
18:12 3 24.6 39 68,896 0 10.47 1.28 10.28 81.56 8.47 2.86 8.7 9.57
18:11 3 24.8 38 68,884 0 11.37 1.25 19.64 85.69 9.12 2.86 8.73 9.6
18:10 3 24.9 38 68,896 0 7.09 1.25 9.96 81.86 8.84 4.57 10.33 11.37
18:09 3 25 38 68,914 0 7.72 1.24 12.84 80.42 8.55 2.86 9.56 10.52
18:08 3 25.2 38 68,935 0 4.01 1.2 9.53 86.05 8.62 3.71 9.57 10.53
18:07 3 25.3 37 68,934 0 1.16 1.2 9.69 72.54 8.82 2.86 9.59 10.55
18:06 3 25.4 37 68,928 0 2.56 1.24 9.67 78.06 9.06 2 8.02 8.83
18:05 3 25.6 37 68,947 0 4.81 1.22 9.95 96.78 9.6 2.86 8.82 9.7